Zurück zum Katalog

NOAA 16 DEB

AktivPO
NORAD 42394·DEBRIS·🇺🇸 United States

Gestartet Sep 21, 2000 von Vandenberg Space Force Base

Loading…

Nächste Überflüge (nächste 24 Stunden)

TLE

AktuellSource: Space-Track

Epoche: Sep 14, 2026, 10:17 UTC

1 42394U 00055SN  26257.42905977  .00004927  00000-0  10357-2 0  9997
2 42394  98.9646 125.8690 0030201 173.9446 186.2122 14.59792867548622

Verfolge NOAA 16 DEB in Echtzeit mit AllMySat

Download on the App Store